Tracking 20066 objects as of 7-Dec-2019
HD Live streaming from Space Station
objects crossing your sky now

COSMOS 2251 DEB

Track COSMOS 2251 DEB now!
10-day predictions


NORAD ID: 40239
Int'l Code: 1993-036BVU
Perigee: 650.3 km
Apogee: 786.2 km
Inclination: 74.0 °
Period: 99.0 minutes
Semi major axis: 7089 km
RCS: Unknown
Launch date: June 16, 1993
Source: Commonwealth of Independent States (former USSR) (CIS)
Launch site: PLESETSK MISSILE AND SPACE COMPLEX (PKMTR)

Note: This is SATELLITE DEBRIS
aabbcc
Your satellite tracking list
Your tracking list is empty




NASA's NSSDC Master Catalog

Two Line Element Set (TLE):
1 40239U 93036BVU 19340.77206399 +.00000175 +00000-0 +45364-4 0  9998
2 40239 074.0321 129.0763 0095842 073.0109 351.8656 14.54458718276076
Source of the keplerian elements: AFSPC